Lapse_Rate
5.9 5.9 5.6 5.6 5.4 5.3 5.3 5.3 5.2 5.3 5.2 5.1 5.0 4.9 4.9 5.0 5.0 4.8 4.7 4.8 4.8 4.7 4.8 4.8 4.5 4.2 4.1 4.5 4.5 4.4 3.5 4.0 3.7 3.9 4.2 3.9 4.1 5.0 5.5 5.1 5.9 6.8 6.6 6.6 6.5
5.8 5.7 5.6 5.3 5.4 5.5 5.3 5.2 5.3 5.3 5.3 5.2 5.1 5.0 4.9 4.9 4.9 4.7 4.4 4.3 4.2 4.0 4.0 4.4 4.7 4.9 5.0 4.6 4.0 4.0 4.0 3.4 3.5 3.4 3.0 3.2 3.9 3.8 4.5 5.5 5.8 6.5 6.7 6.5 6.7
5.8 5.6 5.5 5.4 5.4 5.4 5.4 5.4 5.4 5.4 5.3 5.2 5.1 4.8 4.7 4.6 4.4 4.2 4.0 3.8 4.0 4.2 4.1 3.9 3.6 3.5 3.9 4.2 4.0 3.6 2.6 2.8 2.9 2.8 3.1 3.2 3.4 3.7 3.7 4.9 5.2 6.5 7.1 6.8 6.9
5.8 5.7 5.5 5.5 5.6 5.6 5.4 5.4 5.2 5.2 5.2 5.1 5.0 4.8 4.6 4.3 4.1 3.5 3.5 3.6 4.1 4.1 3.7 3.5 3.5 3.6 3.5 3.4 2.9 2.8 3.0 2.6 2.2 2.3 2.6 3.1 2.7 3.1 3.5 3.2 4.2 5.1 6.5 6.9 6.7
5.8 5.7 5.7 5.7 5.7 5.6 5.4 5.3 5.4 5.3 5.1 5.0 4.8 4.5 4.1 3.8 3.6 3.1 3.4 3.9 3.6 3.2 2.9 2.9 2.9 2.8 2.7 2.7 2.4 2.6 2.7 3.5 4.2 3.9 3.5 3.9 3.6 3.2 3.5 4.0 3.5 4.0 5.5 6.1 6.6
5.7 5.7 5.7 5.8 5.7 5.5 5.4 5.4 5.2 5.0 4.9 4.8 4.5 4.0 3.8 3.5 3.2 3.6 3.8 3.3 3.2 3.0 2.9 2.9 2.8 2.4 2.2 1.9 1.9 2.6 4.0 5.7 6.2 6.1 5.0 4.6 4.2 3.8 3.6 3.2 3.4 4.7 4.7 5.3 5.9
5.7 5.7 5.7 5.8 5.7 5.5 5.4 5.1 5.0 5.0 4.8 4.3 4.0 3.7 3.3 3.3 3.8 3.6 3.1 2.5 2.3 2.3 2.4 2.5 2.3 2.0 2.1 3.3 4.0 5.1 5.7 6.1 5.9 6.1 6.3 6.2 5.9 5.4 4.8 3.6 3.0 3.8 4.9 4.9 5.2
5.6 5.6 5.6 5.7 5.6 5.4 5.1 4.8 5.0 4.9 4.4 3.8 3.6 3.2 3.3 3.5 3.3 2.4 2.3 2.8 2.6 2.3 2.4 2.3 2.4 2.3 3.2 4.5 5.9 6.2 6.1 5.8 6.5 6.4 6.2 5.9 4.9 6.0 5.5 5.0 4.2 3.4 5.2 5.0 5.0
5.6 5.6 5.6 5.6 5.4 5.3 4.8 4.8 5.0 4.8 4.2 3.3 3.0 3.1 3.1 2.6 2.8 2.6 2.1 2.0 2.1 2.6 2.4 2.7 3.1 4.2 5.2 6.0 6.3 6.2 5.2 5.5 5.8 6.3 5.7 5.9 5.7 6.5 6.7 6.0 5.0 4.4 3.7 5.6 5.5
5.7 5.6 5.6 5.4 5.3 5.1 4.7 4.8 4.7 4.5 3.8 3.0 3.1 2.7 2.3 2.2 2.2 2.2 2.0 2.2 2.3 2.6 2.4 3.0 4.1 4.9 5.9 5.8 5.1 5.1 5.1 5.2 5.6 6.1 5.9 5.8 6.0 6.1 7.0 6.8 6.1 5.1 4.1 4.4 5.9
5.7 5.5 5.4 5.3 5.2 5.0 4.6 4.7 4.5 3.7 3.1 2.9 2.9 2.4 2.5 1.9 2.2 2.1 2.0 1.7 2.4 2.5 2.9 3.3 4.7 5.4 5.8 5.6 5.6 5.8 5.4 5.4 5.7 5.9 5.5 5.7 6.1 6.4 6.9 6.7 6.7 6.7 5.2 3.8 5.0
5.6 5.5 5.3 5.3 5.3 4.8 4.6 4.8 4.5 3.9 3.0 2.7 2.7 2.5 2.3 2.1 1.7 1.9 1.6 1.7 2.0 1.9 2.7 4.8 5.7 5.9 5.8 5.9 5.7 5.8 5.3 5.7 5.5 5.8 5.4 5.6 6.5 7.6 7.3 7.6 7.5 7.4 6.5 4.8 3.6
5.6 5.4 5.3 5.4 5.2 4.9 5.0 4.5 4.3 3.6 3.0 2.7 2.6 2.7 1.9 1.5 0.9 1.5 1.3 2.0 1.6 1.9 3.3 5.2 6.0 5.8 5.8 6.0 5.5 6.2 6.1 5.7 5.6 5.2 5.7 5.7 6.6 7.2 7.3 7.7 7.8 7.5 7.2 5.5 4.3
5.5 5.4 5.3 5.4 5.3 4.9 4.5 4.7 4.1 3.3 2.4 2.5 2.2 1.9 1.7 1.8 1.8 1.2 1.5 1.9 2.0 2.6 4.5 5.5 6.2 6.1 6.5 6.2 5.9 5.4 5.4 5.8 5.9 5.4 5.5 6.2 4.9 6.9 6.7 7.3 7.7 7.4 7.4 6.7 5.9
5.6 5.5 5.6 5.4 5.2 5.0 4.7 4.5 3.9 2.9 1.0 2.4 2.3 1.7 1.6 2.0 1.7 1.6 1.5 1.7 2.7 3.2 4.5 5.7 5.9 5.8 6.0 6.1 5.7 5.9 5.6 6.4 6.6 7.0 6.8 6.8 5.7 5.1 6.5 7.4 8.0 8.2 8.1 7.9 6.8
5.6 5.5 5.4 5.3 5.1 4.9 4.5 4.3 3.7 3.4 1.1 2.8 2.3 2.3 1.6 2.5 1.6 1.7 1.4 1.6 2.4 5.2 5.9 6.0 5.9 5.8 5.5 5.9 6.4 6.2 5.5 6.3 6.8 6.5 4.6 6.8 6.4 5.6 5.7 5.4 6.6 7.8 8.1 8.3 8.1
5.6 5.5 5.5 5.3 5.1 4.6 4.4 4.1 3.8 3.3 2.7 2.6 2.2 1.6 1.4 1.4 1.4 1.3 0.8 1.2 1.2 2.6 4.9 6.3 5.7 5.5 5.7 5.6 5.9 5.9 5.1 4.6 3.9 5.0 5.2 7.4 6.8 6.0 6.2 6.1 5.5 5.3 7.3 8.3 8.3
5.5 5.5 5.4 5.2 4.9 4.6 4.1 4.1 3.5 1.7 1.5 2.0 1.3 1.8 1.8 0.8 1.3 1.2 1.3 1.5 2.1 3.4 4.2 4.4 5.4 5.5 5.7 5.4 5.4 5.8 5.9 6.0 5.6 5.9 5.9 6.8 7.6 7.1 6.6 6.5 6.3 5.3 5.3 5.6 6.1
5.5 5.3 5.1 5.1 4.8 4.4 4.0 3.9 2.5 1.9 1.4 1.2 1.5 1.0 1.7 1.5 1.2 1.0 0.8 1.6 2.5 3.7 3.9 4.1 5.0 6.2 5.7 5.7 5.9 5.7 5.5 6.4 5.0 5.3 5.1 6.7 7.5 6.6 6.3 7.1 6.4 5.8 5.8 6.2 6.5
5.4 5.4 5.2 4.9 4.6 4.1 3.9 3.0 2.3 1.9 1.7 1.3 1.2 0.9 0.9 1.0 0.9 0.7 0.9 1.3 2.7 3.9 4.2 4.4 4.4 5.6 5.7 5.9 5.7 5.5 5.5 5.0 5.3 5.2 5.5 7.0 6.5 5.4 5.3 5.0 5.3 5.9 6.3 6.4 6.4
5.3 5.3 5.0 4.9 4.6 4.0 4.0 2.8 2.3 1.7 1.5 1.8 1.4 1.1 0.6 0.5 0.6 0.6 1.0 1.4 2.0 3.8 4.4 4.3 4.4 5.7 5.0 5.1 4.8 5.0 4.1 4.5 4.8 5.8 6.3 5.7 6.3 5.6 5.3 4.7 5.4 6.0 6.1 6.5 7.0
5.1 5.0 4.7 4.6 4.4 4.0 3.5 2.7 2.2 2.1 1.7 1.2 1.2 0.9 0.4 0.1 0.6 0.7 1.0 1.2 2.2 4.0 4.3 4.2 3.9 4.1 4.8 5.4 4.9 4.9 4.2 4.4 4.8 5.4 5.5 5.3 5.2 5.7 4.8 4.9 5.2 5.6 6.1 6.9 7.6
5.2 5.0 4.6 4.4 4.1 3.9 3.5 2.8 2.4 2.2 1.9 1.4 1.2 1.1 1.1 0.5 0.5 0.9 1.1 1.5 2.7 3.9 4.2 4.1 4.2 3.7 4.5 4.7 4.8 4.2 4.0 4.6 5.1 4.9 5.2 4.5 4.7 4.7 4.4 5.3 5.3 5.4 6.3 6.7 7.9
4.9 4.6 4.4 4.4 4.2 3.8 3.3 2.6 2.2 2.1 1.9 1.7 1.3 0.7 0.2 1.4 1.0 1.3 1.6 1.8 2.4 4.2 4.2 4.7 4.4 4.3 4.2 4.3 4.0 4.4 4.2 4.8 4.4 4.3 4.1 4.4 3.3 3.9 4.6 5.1 5.4 6.2 7.3 7.4 7.6
4.8 4.3 4.3 4.0 4.1 3.7 3.2 2.8 2.4 2.3 1.9 1.8 1.6 1.1 0.6 0.5 1.2 1.5 1.5 2.7 3.0 4.2 4.3 4.3 4.4 4.3 4.6 4.9 5.0 4.8 4.0 4.7 4.0 3.7 3.7 3.6 3.4 3.4 3.9 4.3 3.9 4.6 6.0 7.1 6.9
4.4 4.2 4.1 4.2 3.9 3.6 3.4 3.0 2.6 2.1 2.1 2.0 2.0 1.7 1.4 1.2 0.8 1.1 1.3 1.8 2.6 3.9 4.6 4.1 4.0 4.3 5.6 5.4 4.7 4.2 4.7 4.7 4.1 3.1 3.2 3.4 3.4 3.7 4.5 4.3 4.4 5.4 7.0 7.3 7.0
4.5 4.3 4.2 4.1 4.0 3.6 3.2 2.9 2.5 2.2 1.9 1.8 1.7 2.0 1.8 1.6 1.7 1.8 1.8 2.0 2.5 3.3 4.1 3.9 3.7 4.1 4.5 4.9 4.8 4.5 3.9 3.8 3.7 3.1 2.8 2.5 3.5 3.6 4.4 4.2 4.6 6.1 6.1 6.2 6.8
Wind_Speed
20 20 20 20 19 19 21 20 18 15 12 8 8 4 2 8 17 19 17 15 17 22 22 13 9 12 10 2 5 1 7 9 6 4 5 12 17 16 11 5 10 9 9 14 26
21 20 20 20 20 21 22 19 17 14 12 8 8 4 3 5 1 20 19 22 23 24 14 11 14 12 4 4 4 5 8 4 3 10 14 17 19 15 14 21 11 21 27 28 25
21 20 21 21 20 23 22 18 15 13 10 6 7 4 4 5 2 7 22 24 24 25 9 8 9 6 3 5 5 8 9 13 10 16 20 20 18 17 17 16 15 19 26 27 25
21 21 21 21 20 22 20 17 13 9 11 8 7 6 6 2 3 5 22 23 23 24 10 7 7 5 3 5 6 7 6 7 10 13 14 17 17 20 15 17 20 19 20 18 21
20 20 21 21 19 22 17 15 14 13 14 15 14 4 3 6 3 12 21 19 15 8 12 6 5 5 5 6 10 4 7 12 16 14 13 16 15 17 20 15 17 19 20 19 17
19 19 20 21 19 21 15 12 7 9 13 14 15 14 6 8 8 17 16 14 11 7 7 6 5 6 3 6 3 5 9 17 15 17 11 13 12 11 13 17 21 22 19 16 12
18 19 20 21 18 21 14 10 11 7 8 10 10 5 11 6 7 16 14 9 7 5 4 4 5 4 5 6 6 9 14 15 5 13 18 18 11 11 14 15 19 19 20 19 16
19 19 20 20 16 21 13 9 7 8 7 9 9 5 4 2 16 10 12 19 15 7 3 8 6 4 2 5 6 4 3 7 12 14 10 13 17 17 10 9 16 20 24 21 21
18 19 21 20 16 20 13 8 7 20 10 10 6 6 3 8 11 9 10 15 10 11 7 7 2 2 5 4 5 3 6 16 14 11 17 12 23 21 14 11 12 16 18 23 22
19 19 21 20 14 21 15 3 6 10 4 5 4 5 5 7 7 5 10 15 11 9 7 7 4 2 5 6 3 13 15 11 18 20 15 18 22 23 17 14 13 13 16 20 23
19 18 20 19 13 20 9 3 5 6 9 5 0 4 3 8 5 7 10 9 7 6 8 5 3 3 4 4 7 8 12 15 21 19 19 17 24 25 20 17 16 14 11 16 21
19 17 19 17 10 14 9 5 2 3 5 1 3 2 3 4 3 8 6 7 6 5 8 5 2 5 13 8 8 9 14 20 21 11 20 24 27 24 19 20 18 18 15 15 18
18 18 20 16 8 7 10 5 1 2 4 2 1 1 7 1 3 8 8 6 3 4 6 2 6 12 13 7 8 12 16 14 22 33 20 19 13 6 3 8 13 16 12 12 16
17 19 19 18 4 3 4 7 3 1 4 6 5 4 8 4 3 6 8 5 7 6 7 4 7 17 12 8 8 16 10 22 28 19 8 5 5 5 10 11 15 17 15 16 18
15 17 17 14 1 3 5 10 4 3 5 5 3 2 10 7 6 10 6 6 4 12 4 6 12 11 3 6 9 17 16 28 26 17 3 4 4 4 7 13 20 21 20 20 18
13 11 14 6 3 1 6 6 3 4 4 5 4 8 9 6 5 7 6 7 2 5 5 8 10 1 2 9 12 15 16 24 7 3 3 4 2 3 7 14 19 22 20 21 23
13 10 8 3 3 5 3 2 4 6 6 8 6 9 10 6 6 9 5 10 9 9 18 11 8 5 4 10 3 9 15 8 7 5 4 4 10 2 7 16 16 20 25 25 22
11 8 4 4 5 3 2 4 10 2 4 5 6 15 5 10 6 9 7 4 5 4 5 6 9 4 13 1 3 5 4 1 6 6 14 20 3 4 12 14 16 22 24 23 23
9 2 2 7 6 3 4 7 2 2 4 7 10 5 5 7 4 9 5 0 3 1 3 5 6 12 18 11 3 5 7 8 5 9 7 4 5 4 23 31 30 30 28 27 24
1 2 3 12 4 4 6 5 2 1 4 3 4 5 5 7 7 6 3 4 2 2 2 5 9 6 6 3 3 2 4 6 4 5 9 6 7 6 27 32 28 31 29 28 25
2 3 3 18 4 6 4 2 1 3 3 2 3 4 2 5 5 3 4 4 2 5 2 3 3 9 7 3 3 3 4 3 3 4 4 6 6 9 24 22 28 29 27 25 22
1 3 4 6 4 3 3 2 2 2 2 2 2 5 3 4 4 3 3 5 7 4 6 4 3 5 17 1 10 9 3 3 3 4 4 3 6 13 23 22 25 25 23 24 22
2 1 4 5 3 2 1 1 2 0 2 3 3 4 2 3 4 4 4 7 14 11 3 3 2 6 9 4 2 4 7 5 6 5 2 6 9 21 21 25 25 24 24 23 21
3 2 4 4 2 5 3 2 3 2 2 1 3 3 3 5 4 7 9 6 13 9 11 8 1 5 6 14 16 5 8 13 5 3 8 7 26 29 30 32 31 29 28 25 20
3 0 3 2 4 4 4 2 3 4 4 3 3 2 1 2 9 3 6 10 8 6 8 3 2 5 16 18 5 4 6 18 12 4 4 15 20 21 27 28 25 20 24 22 26
3 3 3 2 1 3 1 1 1 3 2 4 2 6 4 4 6 8 9 4 5 5 6 2 3 13 10 8 7 5 12 18 13 4 5 16 21 24 25 23 22 21 28 28 27
1 2 4 2 1 4 2 2 2 1 3 1 4 6 5 7 8 15 13 8 9 5 3 2 4 6 5 12 10 2 4 16 14 4 5 18 24 23 28 28 26 24 26 24 24
Wind_Direction
15 13 14 11 8 4 0 358 4 4 7 6 359 332 265 6 44 41 36 359 355 352 345 323 347 348 339 284 221 7 248 260 279 295 295 333 332 322 328 5 325 331 6 342 341
15 15 13 10 6 4 1 2 4 5 2 6 6 352 342 353 118 41 7 360 357 359 344 347 352 341 326 306 302 182 238 278 319 343 350 343 339 346 341 328 326 337 335 336 345
15 13 10 8 7 3 0 359 355 356 353 3 17 30 353 351 62 3 0 359 0 356 334 346 333 327 328 355 321 333 272 331 319 337 343 327 323 328 324 312 326 319 321 321 324
13 11 9 7 6 3 2 4 7 14 26 34 38 36 10 4 64 326 357 356 357 352 348 343 353 14 304 351 357 324 313 347 323 332 337 324 321 315 305 305 305 304 298 304 316
12 8 7 4 3 3 9 14 47 64 60 47 25 336 18 51 31 318 355 354 350 351 343 346 22 2 1 316 346 291 332 322 317 313 307 305 304 295 292 307 319 323 313 300 296
11 6 4 2 3 4 5 20 24 36 20 5 18 47 58 64 299 359 351 355 340 335 330 6 344 311 275 313 320 279 304 306 313 312 312 335 318 337 328 331 322 316 315 319 327
8 5 1 359 1 1 359 16 18 9 355 345 356 87 69 48 354 345 3 343 315 311 315 304 302 24 326 311 263 287 296 282 287 342 321 339 306 297 304 312 310 310 312 311 309
7 4 358 355 357 356 355 349 348 335 338 341 337 62 95 68 10 354 354 343 335 295 243 258 252 255 185 284 306 299 332 348 314 303 308 324 293 292 287 299 299 300 300 301 301
5 3 357 355 353 349 350 318 316 342 271 322 12 105 21 357 353 329 6 340 320 324 334 357 304 221 6 13 359 353 301 306 312 305 298 298 290 295 295 280 282 288 289 291 292
2 0 358 357 347 347 350 297 323 335 313 329 32 51 24 342 318 327 345 347 358 354 358 358 29 52 21 41 307 298 313 286 294 305 308 299 286 291 291 283 273 267 275 281 284
359 357 360 358 337 357 3 30 22 356 28 84 183 118 298 304 308 355 354 350 353 34 16 315 44 44 322 269 254 280 291 286 290 301 298 294 291 289 290 282 273 256 252 270 276
356 354 358 348 330 23 33 70 86 184 84 93 12 98 283 278 331 353 2 25 17 345 6 357 121 3 341 322 312 309 308 296 292 290 301 298 289 291 288 280 275 267 252 254 270
354 355 349 341 315 64 80 50 333 350 111 201 245 19 295 338 349 335 15 344 320 339 341 200 266 335 341 327 324 316 300 295 297 310 297 277 288 295 349 32 10 9 354 353 317
357 358 348 343 48 347 69 344 352 46 94 339 346 5 329 338 31 47 356 24 349 321 339 312 323 321 317 320 336 315 297 304 305 317 303 39 291 39 342 356 354 347 345 333 324
358 357 2 33 255 45 301 324 321 64 40 321 356 358 337 69 280 343 32 4 6 321 68 272 295 309 310 324 326 298 321 308 304 292 91 15 247 333 342 350 344 338 335 326 316
353 337 350 20 52 260 328 322 52 53 321 343 21 354 7 347 2 325 48 9 54 329 324 289 280 231 41 321 306 334 327 306 320 66 26 218 32 44 5 340 330 328 325 322 319
343 317 336 31 308 326 359 54 33 75 6 339 340 342 335 329 357 360 20 37 40 1 345 326 317 315 32 333 299 352 352 345 1 5 254 316 334 208 6 352 337 329 322 322 318
338 310 317 53 332 352 63 56 61 35 339 353 333 311 39 22 349 347 4 29 16 92 310 356 328 22 334 281 254 331 43 336 305 316 304 307 266 208 8 343 336 332 327 320 313
333 301 3 322 352 58 67 49 168 313 306 324 315 22 346 13 343 6 15 171 237 62 51 340 263 316 304 339 82 335 2 289 261 260 273 257 325 286 352 353 341 331 326 319 311
15 18 309 337 356 60 66 107 163 288 327 333 11 49 338 334 4 14 336 244 270 239 156 259 294 274 324 2 14 81 326 344 346 321 312 298 316 321 350 335 333 328 324 318 316
46 52 262 347 66 47 88 117 68 332 70 14 348 332 280 312 310 284 251 281 269 292 266 179 146 289 328 7 267 344 3 302 248 280 308 305 315 5 342 326 326 319 317 319 317
56 50 305 16 50 47 81 105 176 272 27 310 246 175 196 296 296 292 284 215 0 349 323 234 223 292 298 222 133 94 337 294 316 317 281 297 273 352 337 329 321 317 322 328 334
68 321 331 65 76 40 64 117 179 51 5 30 336 38 263 289 339 264 304 325 2 342 261 286 298 315 339 347 272 44 11 336 293 275 310 319 295 326 329 328 329 331 338 335 329
68 30 357 39 67 114 89 3 350 53 70 352 267 297 348 306 228 288 296 308 329 312 353 3 206 181 261 275 294 313 358 14 330 303 306 277 312 328 335 336 337 336 338 339 341
37 99 169 13 22 94 101 180 331 12 11 321 329 41 155 292 308 260 322 329 319 355 358 94 259 269 288 285 273 169 4 13 348 309 311 314 322 328 331 331 331 324 333 338 354
110 119 14 112 163 111 118 249 90 318 151 309 331 302 291 230 229 289 313 346 272 318 327 324 282 316 302 304 172 204 17 3 347 331 292 321 327 335 326 327 330 343 347 352 351
51 30 99 220 178 86 201 175 213 26 299 261 340 324 305 288 292 282 272 247 247 277 294 332 301 326 278 315 323 45 356 353 348 1 323 358 328 329 332 335 337 345 349 346 346